Location: Bernieulles
(50.5546°N, 1.7738°E)
Time: 09:36:16
(UTC+00:00)

Daily predictions for brighter satellites

Satellite Brightness Start Highest point End
(mag) Time Altitude Azimuth Time Altitude Azimuth Time Altitude Azimuth
Cosmos 2285 Rocket 4.4 17:15:18 10° NNW 17:21:44 74° WSW 17:28:07 10° SSE
Cosmos 1992 Rocket 4.0 17:17:15 10° SSW 17:22:26 68° ESE 17:27:39 10° NNE
Cosmos 2084 3.6 17:18:48 10° SW 17:23:20 74° SE 17:27:47 10° NE
Meteor 1-16 Rocket 4.5 17:19:46 10° SSE 17:24:56 43° E 17:30:01 10° NNE
GP-B 4.3 17:21:18 10° N 17:25:36 48° W 17:29:52 10° SSW
FengYun 1-2 T 4.5 17:20:38 10° SE 17:26:02 50° ENE 17:31:26 10° N
Unknown 3.7 17:22:11 10° WSW 17:26:20 87° NNW 17:30:30 10° ENE
NOAA 12 4.1 17:21:30 10° SSE 17:26:46 75° ENE 17:32:06 10° NNW
ATLAS 5 CENTAUR R/B 1.9 17:23:16 10° SW 17:27:36 73° NW 17:32:34 10° NE
Unknown 3.7 17:23:30 10° WSW 17:27:40 87° NNW 17:31:50 10° ENE
Cosmos 921 Rocket 3.4 17:23:40 10° S 17:27:58 47° ESE 17:32:16 10° NNE
Cosmos 1908 4.4 17:25:48 10° SE 17:28:50 22° E 17:31:53 10° NE
Unknown 3.7 17:25:16 10° WSW 17:29:26 84° NNW 17:33:35 10° ENE
Cosmos 1758 3.9 17:26:14 10° SSW 17:30:09 62° WNW 17:34:06 10° N
Cosmos 2278 Rocket 3.2 17:27:22 10° SSE 17:31:53 25° ESE 17:36:25 10° NE
Unknown 3.7 17:28:35 10° WSW 17:32:44 82° NNW 17:36:55 10° ENE
Cosmos 1242 Rocket 2.6 17:29:15 10° N 17:32:55 56° ENE 17:36:32 10° SSE
Unknown 3.7 17:28:49 10° WSW 17:32:58 83° NNW 17:37:08 10° ENE
Unknown 3.7 17:30:08 10° WSW 17:34:18 82° NNW 17:38:28 10° ENE
Cosmos 1777 Rocket 4.1 17:30:18 10° NNW 17:35:27 54° ENE 17:40:32 10° SE
Unknown 3.7 17:33:19 10° WSW 17:37:29 82° NNW 17:41:36 10° ENE
Cosmos 1844 3.7 17:31:47 10° SSW 17:37:29 75° ESE 17:43:17 10° NNE
Cosmos 1626 4.4 17:36:50 10° NNW 17:40:10 31° W 17:43:28 10° SSW
Cosmos 839 Rocket 4.2 17:34:10 10° NW 17:40:22 89° SW 17:47:15 10° SE
Unknown 3.7 17:36:46 10° WSW 17:40:55 79° NNW 17:44:54 11° ENE
Cosmos 2058 Rocket 3.2 17:37:59 10° SSE 17:42:11 48° E 17:46:23 10° NNE
SWAS 4.4 17:38:12 10° SSW 17:42:27 73° ESE 17:46:46 10° NE
Unknown 3.7 17:38:28 10° WSW 17:42:38 78° NNW 17:46:32 12° ENE
Unknown 3.7 17:40:05 10° WSW 17:44:15 77° NNW 17:48:05 12° ENE
USA 116 4.5 17:41:55 10° NE 17:44:29 22° E 17:47:09 10° SSE
Cosmos 1470 4.1 17:41:07 10° SSW 17:44:55 44° WNW 17:48:46 10° N
Unknown 3.7 17:41:45 10° WSW 17:45:55 76° NNW 17:49:41 12° ENE
Lacrosse 5 rocket 4.0 17:43:27 10° W 17:46:05 18° SW 17:48:47 10° S
Cosmos 1726 2.3 17:43:17 10° SSE 17:46:47 46° E 17:50:19 10° NNE
Unknown 3.7 17:45:09 10° W 17:49:18 74° NNW 17:52:56 13° ENE
CSL-04 Rocket 3.8 17:44:51 10° SSE 17:50:17 60° ENE 17:55:40 10° N
Unknown 3.7 17:46:52 10° W 17:51:01 73° NNW 17:54:35 14° ENE
Unknown 3.7 17:48:25 10° W 17:52:34 73° NNW 17:56:04 14° ENE
Cosmos 2263 Rocket 4.2 17:48:11 10° W 17:52:49 25° NW 17:57:27 10° NNE
SJ 16-02 3.2 17:52:06 10° NNE 17:54:14 13° NE 17:55:27 12° ENE
Unknown 3.7 17:50:05 10° W 17:54:14 73° NNW 17:57:40 15° ENE
Unknown 3.7 17:50:33 10° W 17:54:42 72° NNW 17:58:07 15° ENE
Okean-O 3.5 17:50:31 10° S 17:54:51 53° W 17:59:14 10° NNW
Cosmos 1328 3.7 17:51:07 10° N 17:55:08 81° E 17:59:06 10° SSE
COSMO-SKYMED 1 2.6 17:51:17 10° NNE 17:55:35 56° E 17:59:51 10° S
Unknown 3.6 17:52:28 10° WNW 17:56:11 58° N 17:58:56 17° E
Cosmos 292 Rocket 3.8 17:51:54 10° S 17:56:33 57° ESE 18:01:14 10° NNE
Unknown 3.7 17:53:14 10° W 17:57:22 73° NNW 18:00:41 16° ENE
Cosmos 1939 Rocket 3.6 17:54:51 10° SE 17:58:27 33° ENE 18:02:08 10° N
Unknown 3.7 17:56:38 10° W 18:00:46 71° NNW 18:03:56 17° ENE
Unknown 3.8 17:58:15 10° W 18:02:23 70° NNW 18:05:29 17° ENE
NOAA 11 4.4 17:57:47 10° SE 18:02:58 47° ENE 18:08:10 10° N
Cosmos 1605 Rocket 3.9 17:57:10 10° N 18:03:23 69° ENE 18:09:28 10° SSE
ASTEX 1 3.3 17:58:27 10° N 18:03:26 79° E 18:08:25 10° S
Unknown 3.8 18:00:11 10° W 18:04:19 68° N 18:07:20 18° ENE
Unknown 3.8 18:01:33 10° W 18:05:42 69° N 18:08:39 18° ENE
Cosmos 1833 Rocket 2.6 18:00:29 10° NNW 18:06:07 70° ENE 18:11:43 10° SE
H-2A R/B 3.5 18:04:36 16° E 18:06:32 19° NE 18:10:17 10° N
Cosmos 1461 2.8 18:02:59 10° NW 18:07:04 74° NE 18:11:01 11° SE
Unknown 3.8 18:03:15 10° W 18:07:23 69° NNW 18:10:17 19° ENE
Unknown 3.0 18:06:32 10° WNW 18:09:58 88° SSW 18:12:01 22° ESE
Cosmos 1934 Rocket 4.3 18:03:50 10° NNW 18:10:10 77° W 18:16:32 10° S
Unknown 3.8 18:06:38 10° W 18:10:46 68° N 18:13:32 20° ENE
FALCON 9 DEB 3.1 18:08:26 10° WNW 18:11:56 87° NNE 18:13:56 24° ESE
Unknown 3.8 18:08:17 10° W 18:12:26 67° N 18:15:07 21° ENE
Meteor 2-10 3.9 18:08:23 10° S 18:13:27 81° E 18:18:31 10° NNE
Unknown 3.8 18:09:58 10° W 18:14:06 67° N 18:16:43 22° ENE
Envisat 3.7 18:09:42 10° S 18:14:43 59° W 18:19:46 10° NNW
Unknown 3.8 18:11:38 10° W 18:15:46 66° N 18:18:18 22° ENE
Cosmos 1727 Rocket 4.2 18:10:43 10° SSE 18:16:33 46° E 18:22:24 10° NNE
Cosmos 2084 Rocket 3.8 18:12:27 10° NW 18:16:48 51° NE 18:19:17 23° ESE
Resurs 01 Rocket 3.8 18:18:49 10° NE 18:18:49 10° NE 18:18:54 10° NE
ATLAS 3B R/B 4.2 18:14:46 10° SE 18:16:54 14° ESE 18:16:54 14° ESE
Cosmos 1898 Rocket 4.3 18:13:52 10° N 18:18:34 31° NE 18:20:56 22° E
CZ-2D R/B 3.3 18:15:11 10° SSE 18:18:58 57° ENE 18:22:48 10° N
Unknown 3.8 18:14:57 10° W 18:19:04 65° N 18:21:28 24° ENE
Unknown 3.7 18:15:30 10° WNW 18:19:18 59° N 18:21:13 27° ENE
YAOGAN 6 3.1 18:16:37 10° S 18:20:14 62° W 18:23:51 10° NNW
Unknown 3.8 18:16:16 10° W 18:20:24 64° N 18:22:44 24° ENE
Unknown 3.8 18:16:53 10° W 18:21:01 63° N 18:23:19 25° ENE
ATLAS CENTAUR R/B 3.7 18:19:31 10° NNW 18:22:16 15° N 18:24:27 11° NE
Cosmos 2173 Rocket 4.4 18:16:23 10° N 18:22:16 40° ENE 18:28:03 10° SE
Cosmos 1356 3.8 18:18:55 10° SSW 18:22:20 67° WNW 18:25:47 10° N
Unknown 3.8 18:18:33 10° W 18:22:41 63° N 18:24:55 25° ENE
Unknown 3.1 18:19:29 10° WNW 18:23:01 89° NNE 18:24:33 31° ESE
CZ-4 R/B 2.2 18:21:15 10° S 18:25:22 56° W 18:29:34 10° NNW
Cosmos 1300 3.6 18:22:09 10° SSE 18:27:23 19° NE 18:28:52 10° NNE
Unknown 3.8 18:21:40 10° W 18:25:47 64° N 18:27:55 27° ENE
Lacrosse 5 1.8 18:21:32 10° WNW 18:26:38 89° SSW 18:29:56 22° SE
Unknown 3.8 18:22:50 10° W 18:26:52 60° N 18:28:47 28° ENE
Unknown 3.8 18:23:22 10° W 18:27:26 62° N 18:29:25 28° ENE
CENTAUR R/B 4.0 18:24:28 10° SE 18:26:02 14° SE 18:26:02 14° SE
Falcon 9 debris 3.2 18:25:38 10° WNW 18:29:05 74° SSW 18:30:26 34° SE
Unknown 3.8 18:25:01 10° W 18:29:07 63° N 18:31:06 29° ENE
Abrixas rocket 3.1 18:27:31 10° SW 18:30:15 29° SSE 18:30:26 29° SSE
Unknown 3.8 18:26:40 10° W 18:30:48 63° N 18:32:42 30° ENE
Unknown 3.8 18:28:20 10° W 18:32:28 62° N 18:34:18 31° ENE
Cosmos 2082 Rocket 2.1 18:26:52 10° NNW 18:32:38 77° ENE 18:37:43 13° SE
Unknown 3.7 18:29:32 10° WNW 18:33:23 60° N 18:34:48 35° ENE
Unknown 3.9 18:30:00 10° W 18:34:07 62° N 18:35:53 32° ENE
BREEZE M DEB (TANK) 3.5 18:33:13 10° W 18:35:34 31° SSW 18:38:41 16° SE
Cosmos 1076 Rocket 3.5 18:31:41 10° N 18:36:02 59° ENE 18:39:43 14° SSE
Cosmos 967 Rocket 4.5 18:31:14 10° NW 18:37:44 87° NE 18:43:04 16° SE
Cosmos 1812 Rocket 3.6 18:34:04 10° S 18:38:24 56° E 18:42:47 10° NNE
Unknown 3.9 18:36:35 10° W 18:40:43 61° N 18:42:12 36° ENE
Unknown 3.9 18:38:21 10° W 18:42:28 61° N 18:43:53 37° ENE
SKYMED 2 4.4 18:39:24 10° N 18:43:38 51° WNW 18:47:50 10° SW
Unknown 3.9 18:39:58 10° W 18:44:05 61° N 18:45:26 38° ENE
Unknown 3.3 18:41:49 10° WNW 18:45:18 68° SSW 18:46:02 50° SE
Unknown 3.9 18:41:38 10° W 18:45:45 61° N 18:47:01 40° ENE
USA 238 DEB 3.8 18:39:52 10° SSW 18:46:19 53° ESE 18:51:07 19° NE
USA 238 3.8 18:39:59 10° SSW 18:46:26 52° ESE 18:51:11 20° NE
Cosmos 2100 Rocket 3.9 18:40:26 10° N 18:46:36 62° ENE 18:52:41 10° SSE
Unknown 3.9 18:43:19 10° W 18:47:26 61° N 18:48:38 41° ENE
CZ-2C R/B 4.2 18:47:03 27° ENE 18:47:30 28° ENE 18:52:15 10° N
YAOGAN 1 3.8 18:44:06 10° S 18:48:14 44° W 18:52:24 10° NNW
Cosmos 1844 Rocket 4.3 18:44:03 10° WSW 18:49:09 34° NW 18:54:16 10° NNE
Unknown 3.9 18:46:40 10° W 18:50:47 60° N 18:51:51 44° NE
Gbstr 26 Del rocket 4.5 18:45:01 10° WNW 18:51:00 58° SSW 18:55:35 23° SE
Starlink (trailer) 3.9 18:48:18 10° W 18:52:24 60° N 18:53:24 45° NE
Unknown 3.9 18:49:58 10° W 18:54:05 60° N 18:55:00 47° NE
Unknown 3.9 18:51:39 10° W 18:55:46 60° N 18:56:37 48° NE
SJ-6B 3.9 18:58:15 29° NNE 18:58:15 29° NNE 19:00:27 10° N
Ariane Rocket 3.1 18:52:09 10° SSE 18:57:15 79° WSW 19:02:24 10° NNW
In-Cosmos 22 Rocket 4.0 18:53:03 10° N 18:58:25 64° ENE 19:01:10 29° SSE
Unknown 3.8 18:57:53 10° W 19:02:00 60° N 19:02:35 54° NE
Unknown 3.8 18:58:18 10° W 19:02:24 60° N 19:02:58 54° NE
Unknown 3.8 18:58:53 10° W 19:03:01 60° N 19:03:32 54° NE
Cosmos 2151 3.8 18:59:40 10° N 19:02:43 36° NE 19:02:43 36° NE
Cosmos 2058 2.8 18:59:52 10° N 19:04:07 83° E 19:05:13 49° SSE
SJ-11-01 4.1 19:04:37 45° SE 19:05:59 72° ENE 19:10:40 10° N
Unknown 3.8 19:02:00 10° W 19:06:07 60° N 19:06:31 57° NNE
Cosmos 2016 Rocket 4.0 19:00:30 10° N 19:06:41 57° ENE 19:09:06 36° SE
Unknown 3.8 19:03:21 10° W 19:07:29 60° N 19:07:49 58° NNE
Unknown 3.8 19:05:08 10° WNW 19:09:15 61° N 19:09:31 59° NNE
HJ-1C 3.9 19:09:58 52° SW 19:10:23 57° W 19:13:43 10° NNW
NOSS 3-2 (A) 3.4 19:04:58 10° SSW 19:10:41 60° SE 19:13:02 38° ENE
Unknown 3.8 19:08:27 10° WNW 19:12:34 61° N 19:12:42 61° NNE
Unknown 3.8 19:08:41 10° WNW 19:12:47 61° N 19:12:55 60° NNE
ATLAS 5 CENTAUR R/B 3.7 19:09:16 10° WNW 19:13:07 25° NNW 19:16:14 15° NNE
SL-08 R/B 4.5 19:07:32 10° N 19:13:34 54° ENE 19:14:37 48° ESE
Cosmos 1937 Rocket 3.5 19:08:37 10° NNW 19:13:42 56° ENE 19:13:53 56° ENE
Cosmos 858 Rocket 4.5 19:08:35 10° NNW 19:13:44 58° ENE 19:14:03 57° ENE
Unknown 3.8 19:10:01 10° WNW 19:14:08 61° N 19:14:12 61° N
Cosmos 2278 Rocket 2.5 19:09:52 10° SW 19:15:31 66° WNW 19:21:12 10° NNE
Cosmos 2297 4.0 19:11:30 10° S 19:15:55 45° SE 19:15:55 45° SE
Unknown 3.8 19:13:11 10° WNW 19:17:15 61° N 19:17:15 61° N
Cosmos 990 Rocket 3.8 19:12:20 10° NNW 19:17:33 75° ENE 19:18:18 63° ESE
Unknown 3.9 19:16:39 10° WNW 19:20:33 60° NNW 19:20:33 60° NNW
Unknown 3.9 19:18:21 10° WNW 19:22:10 60° NNW 19:22:10 60° NNW
Unknown 4.0 19:19:57 10° WNW 19:23:44 59° NNW 19:23:44 59° NNW
Unknown 4.0 19:21:38 10° WNW 19:25:20 58° NNW 19:25:20 58° NNW
SPOT 3 Rocket 3.4 19:27:56 71° SE 19:28:28 81° ENE 19:33:43 10° NNW
BREEZE-M DEB (TANK) 3.3 19:21:43 10° WSW 19:28:04 44° SSW 19:28:04 44° SSW
Unknown 4.1 19:25:02 10° WNW 19:28:35 55° NW 19:28:35 55° NW
Unknown 4.2 19:26:45 10° WNW 19:30:14 54° NW 19:30:14 54° NW
Cosmos 2061 Rocket 3.9 19:25:22 10° N 19:31:41 87° E 19:34:04 41° SSE
Unknown 4.3 19:28:18 10° WNW 19:31:43 53° NW 19:31:43 53° NW
SJ 16-02 2.0 19:29:15 10° NNW 19:32:27 47° N 19:32:27 47° N
Unknown 4.3 19:29:58 10° WNW 19:33:19 51° NW 19:33:19 51° NW
Unknown 4.3 19:30:26 10° WNW 19:33:46 51° NW 19:33:46 51° NW
NOSS 3-2 (C) 3.6 19:29:24 10° SSW 19:34:07 52° SSE 19:34:07 52° SSE
Unknown 4.4 19:33:07 10° WNW 19:36:20 48° NW 19:36:20 48° NW
Cosmos 1459 Rocket 4.4 19:35:49 10° NNW 19:41:56 62° W 19:47:27 13° S
ARGOS 3.0 19:42:35 84° NE 19:42:35 84° NE 19:47:58 10° NNW
ADEOS Rocket 3.4 19:34:56 10° NNE 19:42:41 68° ESE 19:49:53 10° S
H-2A R/B 2.0 19:45:14 87° SW 19:45:17 87° WSW 19:50:45 10° NNW
Resurs 01 Rocket 3.5 19:56:23 22° N 19:56:23 22° N 19:58:04 10° N
Cosmos 1898 Rocket 4.2 19:55:48 10° NNW 20:00:53 49° WSW 20:01:14 48° WSW
ATLAS CENTAUR R/B 3.6 19:58:32 10° NNW 20:00:38 22° N 20:00:38 22° N
ATLAS 3B R/B 3.8 20:01:10 10° SSW 20:04:16 29° SSW 20:04:16 29° SSW
Lacrosse 5 3.7 20:05:07 10° WNW 20:09:05 24° SW 20:09:09 24° SW
Cosmos 2227 Rocket 4.5 20:10:52 10° N 20:13:01 13° NNE 20:13:01 13° NNE
Cosmos 2082 Rocket 4.4 20:11:57 10° NW 20:16:06 21° W 20:19:38 12° SW
CENTAUR R/B 4.1 20:11:31 10° SSW 20:13:19 21° SSW 20:13:19 21° SSW
Cosmos 2297 Rocket 4.4 20:15:55 10° N 20:18:01 14° NNE 20:18:01 14° NNE
Cosmos 2123 Rocket 4.3 20:21:07 64° NNW 20:21:07 64° NNW 20:26:37 10° N
Cosmos 1238 Rocket 4.5 20:14:12 10° N 20:19:21 55° N 20:19:21 55° N
CZ-2C R/B 4.0 20:28:07 53° NW 20:28:07 53° NW 20:32:42 10° NNW
Cosmos 2233 Rocket 4.4 20:23:37 10° NNW 20:28:41 58° NNW 20:28:41 58° NNW
USA 238 DEB 4.3 20:30:47 10° WSW 20:37:23 52° NW 20:38:35 47° N
USA 238 4.3 20:30:54 10° WSW 20:37:29 52° NW 20:38:39 47° N
ATLAS 5 CENTAUR R/B 4.3 20:55:38 10° NW 20:57:46 18° NNW 20:57:46 18° NNW
